Location: Almena Post Office
(39.8928°N, 99.7066°W)
Time: 14:00:16
(UTC+00:00)

MOS 1-B - Pass Details

Date: 27 February 2020
Orbit: 906 x 913 km, 99.4° (Epoch: 04 April)

Event Time Altitude Azimuth Distance (km) Brightness Sun altitude
Rises 12:06:05 0° 13° (NNE) 3,556 7.6 -14.1°
Reaches altitude 10° 12:08:30 10° 13° (NNE) 2,610 6.9 -13.7°
Maximum altitude 12:14:20 86° 287° (WNW) 921 4.3 -12.5°
Drops below altitude 10° 12:20:08 10° 198° (SSW) 2,592 6.6 -11.4°
Sets 12:22:32 0° 198° (SSW) 3,529 7.3 -11.0°
